Zurück zum Katalog

STARLINK-32873

AktivKommunikationVLEO
NORAD 62857·PAYLOAD·🇺🇸 United States

Gestartet Feb 1, 2025 von Vandenberg Space Force Base

Loading…

Nächste Überflüge (nächste 24 Stunden)

TLE

AktuellSource: CelesTrak SupGP

Epoche: Sep 14, 2026, 21:20 UTC

1 62857C 25022D   26257.88937500 -.00016690  00000+0 -49322-3 0  2574
2 62857  53.1591 327.7697 0001291  78.1557 160.4007 15.34391523    16

Verfolge STARLINK-32873 in Echtzeit mit AllMySat

Download on the App Store